Temperature
21 21 20 20 18 17 20 21 21 22 22 23 23 23 22 22 21 21 22 22 21 21 21 20 20 20 20 20 19 19 19 19 19 19 19 19 19 19 19 19 18 18 18 18 18 18 18 18 18
21 21 20 20 18 19 20 21 22 22 23 23 23 23 22 22 22 22 22 21 21 21 21 20 20 20 20 19 19 19 19 19 19 19 19 19 19 19 18 18 18 18 18 18 18 18 18 18 18
21 20 20 17 18 19 21 22 22 23 23 23 23 22 22 22 22 22 22 21 21 21 21 20 20 20 20 19 19 19 19 19 19 19 19 19 19 18 18 18 18 18 18 18 18 18 18 18 17
21 20 20 17 20 20 20 22 22 22 23 23 23 22 22 22 22 22 22 21 21 21 21 20 20 19 19 19 19 19 19 19 19 19 19 19 18 18 18 18 18 18 18 18 18 18 17 17 17
21 20 18 18 19 20 21 22 23 22 23 23 22 21 21 21 22 22 22 21 21 21 20 20 20 19 19 19 19 19 19 19 19 19 18 18 18 18 18 18 18 18 18 17 17 17 17 17 17
21 18 17 18 20 21 22 23 23 22 22 23 22 21 21 21 22 22 21 21 21 21 20 20 20 19 19 19 19 19 19 19 19 18 18 18 18 18 18 18 18 17 17 17 17 17 17 17 17
20 17 18 19 20 21 23 24 23 22 22 23 22 21 21 21 21 21 21 21 20 20 20 20 19 19 19 19 19 19 19 19 18 18 18 18 18 18 18 17 17 17 17 17 17 17 17 17 17
21 17 19 19 20 21 23 23 24 23 23 23 23 21 21 21 21 21 20 20 20 20 19 19 19 19 19 19 19 19 19 18 18 18 18 18 18 17 17 17 17 17 17 17 17 17 17 16 16
21 17 18 19 20 21 22 22 23 23 23 23 22 22 22 22 21 20 20 19 19 19 19 19 19 19 19 19 19 19 18 18 18 18 18 17 17 17 17 17 17 17 17 17 16 16 16 16 16
20 17 19 20 21 21 22 22 23 23 22 22 22 22 22 21 21 20 20 20 19 19 19 19 19 19 19 19 18 18 18 18 18 18 18 17 17 17 17 17 17 17 17 16 16 16 16 16 16
19 19 19 21 22 22 22 22 23 22 21 22 22 22 21 21 20 20 20 20 20 20 19 19 19 19 18 18 18 18 18 18 18 17 17 17 17 17 17 17 17 16 16 16 16 16 16 16 16
19 19 21 22 23 22 22 22 22 22 23 24 24 23 22 21 21 21 21 20 20 19 19 19 19 18 18 18 18 18 18 18 17 17 17 17 17 17 17 16 16 16 16 16 16 16 16 16 16
19 20 21 22 22 22 22 22 22 22 24 24 23 22 22 22 21 21 21 20 20 20 19 19 19 18 18 18 18 18 18 18 17 17 17 17 17 17 16 16 16 16 16 16 16 16 16 16 16
20 20 21 21 22 22 21 21 21 22 23 23 22 22 22 22 22 21 20 20 20 20 19 19 19 18 18 18 18 18 18 17 17 17 17 17 16 16 16 16 16 16 16 16 16 16 16 16 16
21 20 20 20 21 22 22 21 21 23 23 22 22 21 21 21 21 21 21 21 20 20 20 19 19 18 18 18 18 18 18 17 17 17 17 17 16 16 16 16 16 16 16 16 16 15 15 15 15
20 19 19 20 21 22 22 21 21 23 22 21 21 21 21 21 21 21 21 21 20 20 19 19 18 18 18 18 18 17 17 17 17 17 16 16 16 16 16 16 16 15 15 15 15 15 15 15 15
18 18 19 20 21 21 21 20 21 22 21 20 20 20 20 20 20 20 20 20 20 20 19 19 18 18 18 18 17 17 17 17 16 16 16 16 16 16 16 15 15 15 15 15 15 15 15 15 15
18 19 19 20 20 20 20 20 20 21 20 20 20 20 20 20 21 21 20 20 20 19 19 19 18 18 18 17 17 17 17 16 16 16 16 16 16 16 15 15 15 15 15 15 15 15 15 15 15
19 19 19 20 21 20 19 20 20 20 20 19 19 19 20 20 21 20 20 20 20 19 19 19 18 18 17 17 17 17 16 16 16 16 16 16 16 16 15 15 15 15 15 15 15 15 15 15 15
19 19 19 20 20 21 19 19 19 19 19 19 19 19 20 20 20 20 20 20 19 19 19 18 18 18 18 17 17 17 16 16 16 16 16 15 15 15 15 15 15 15 15 15 15 15 15 15 14
19 19 19 20 20 20 20 19 19 19 19 20 20 20 20 20 20 20 20 20 19 19 19 18 18 18 17 17 17 16 16 16 15 15 15 15 15 15 15 15 15 15 15 15 15 15 14 14 14
19 20 20 20 19 18 19 18 19 19 18 18 19 19 19 20 20 20 20 19 19 19 19 18 18 17 17 17 17 16 16 16 16 15 15 15 15 15 15 15 15 15 15 15 15 14 14 14 14
20 21 20 20 18 18 18 18 18 18 18 18 18 18 19 19 19 19 19 19 19 19 18 18 17 17 17 17 16 16 16 16 15 15 15 15 15 15 15 15 15 15 14 14 14 14 14 14 14
21 20 19 17 16 18 18 18 18 17 18 18 18 18 18 18 19 19 19 19 18 18 18 18 17 17 17 16 16 16 16 15 15 15 15 15 15 15 15 14 14 14 14 14 14 14 14 14 14
20 18 17 18 16 17 18 18 17 18 18 18 17 18 18 18 18 18 18 18 18 18 18 17 17 17 16 16 16 15 15 15 15 15 15 15 15 15 14 14 14 14 14 14 14 14 14 13 13
19 18 17 18 17 17 18 18 17 18 18 18 18 18 17 17 18 18 18 18 18 18 18 17 17 17 16 16 15 15 15 15 15 15 15 15 15 15 14 14 14 14 14 14 14 14 13 13 13
19 18 18 16 17 17 17 17 18 18 17 17 17 17 16 17 17 18 18 18 18 18 18 17 17 17 16 16 15 15 15 15 15 15 14 14 14 14 14 14 14 14 14 14 14 13 13 13 13
19 17 15 16 17 17 18 17 17 18 17 16 16 16 16 16 17 17 17 18 17 18 17 17 17 16 16 16 15 15 15 15 14 14 14 14 14 14 14 14 14 14 14 13 13 13 13 13 13
18 17 16 14 15 16 17 17 17 17 17 16 15 16 16 16 16 17 17 17 17 17 17 17 16 16 16 15 15 15 15 15 14 14 14 14 14 14 14 14 14 14 13 13 13 13 13 13 13
19 17 16 16 16 15 16 16 17 16 16 15 16 16 16 16 16 16 17 17 17 16 16 16 16 16 15 15 15 15 15 15 14 14 14 14 14 14 14 14 14 13 13 13 13 13 13 13 13
Wind_Speed
5 5 3 2 4 5 1 4 3 3 2 1 1 2 4 3 3 2 0 7 10 10 10 13 14 14 14 13 13 13 14 14 15 15 15 14 13 13 12 12 12 12 11 11 11 10 10 9 9
5 3 2 4 5 2 4 4 4 3 2 1 2 2 3 2 2 3 3 6 10 10 10 12 14 14 14 14 13 13 14 14 15 15 14 14 13 12 12 11 11 11 11 10 10 9 9 9 9
4 2 4 4 3 4 4 4 3 0 1 2 2 2 2 1 1 4 4 10 10 9 9 11 14 14 14 13 13 13 13 13 14 14 14 13 12 12 11 11 10 10 10 10 9 8 8 8 9
3 3 4 4 2 5 5 5 2 1 1 1 3 2 1 1 2 5 9 11 10 8 8 11 14 14 13 13 13 13 13 13 13 14 14 13 12 11 10 10 9 9 9 9 9 8 7 8 8
3 4 4 2 4 5 5 5 3 2 1 1 3 2 1 3 4 9 11 10 10 8 7 10 14 13 13 13 13 13 12 12 12 13 12 12 11 10 10 9 9 9 9 8 8 8 8 8 8
4 4 4 2 5 5 4 3 2 1 1 2 3 3 0 2 5 8 9 8 8 8 6 9 13 13 12 12 13 12 11 11 11 12 12 11 10 10 9 9 9 8 8 8 7 7 7 7 7
4 4 3 3 4 4 3 1 3 2 2 3 5 4 1 1 4 7 7 7 7 7 6 5 8 10 11 11 11 11 11 11 10 10 11 10 10 9 9 9 9 8 8 7 7 7 7 7 7
5 5 1 3 4 5 3 1 1 3 2 1 4 6 5 5 7 8 7 6 6 5 5 4 6 8 8 9 10 11 11 10 10 10 10 10 9 8 8 8 8 8 7 7 7 7 7 6 6
4 4 3 5 5 5 2 1 2 0 2 1 2 3 4 11 12 10 7 5 5 5 4 4 5 6 7 8 9 9 10 9 9 8 8 8 6 5 6 7 7 7 7 6 6 6 6 5 5
4 3 7 6 5 4 3 2 2 0 1 1 1 3 9 13 12 12 11 10 9 8 6 5 5 5 5 6 6 6 6 6 6 6 6 6 5 5 4 6 7 7 7 7 6 6 6 5 4
6 7 6 6 6 4 4 4 3 4 5 7 8 10 12 12 12 11 11 11 10 9 7 6 6 5 5 3 5 4 4 4 4 5 6 5 5 4 3 3 4 5 6 5 5 5 5 4 4
5 7 6 5 3 3 5 3 3 6 8 6 8 13 14 14 14 13 13 10 8 7 7 6 6 5 5 4 4 4 4 3 3 4 5 5 4 3 3 3 3 4 4 4 4 4 4 4 3
5 6 5 5 6 5 4 5 4 7 6 3 7 11 14 14 13 11 10 9 8 8 7 7 6 6 5 5 4 5 4 4 4 4 4 5 4 3 3 3 3 3 4 4 3 3 3 3 2
5 4 5 5 6 4 5 6 3 7 4 5 8 10 12 13 12 10 9 9 10 9 9 7 6 5 6 6 5 4 5 5 5 4 5 5 4 4 4 3 3 3 3 3 3 3 2 2 2
1 3 7 4 3 3 2 5 6 7 5 6 7 9 10 10 11 12 12 11 10 9 8 8 8 6 7 6 6 5 5 5 4 4 5 5 5 4 4 3 2 3 4 4 3 3 2 2 2
2 2 4 6 3 3 4 8 7 5 6 7 6 7 8 8 9 9 9 8 8 7 8 8 8 7 6 6 5 4 5 5 4 4 4 5 5 5 4 3 2 3 4 4 3 2 2 1 1
2 2 4 6 3 1 3 7 5 3 6 7 7 6 7 7 7 8 8 9 9 9 8 8 7 7 6 5 4 4 4 4 3 4 4 4 5 5 5 3 3 4 3 3 2 2 2 2 1
5 4 5 6 4 1 5 9 8 5 6 7 7 7 7 8 9 8 8 8 8 8 7 8 7 7 6 5 4 3 2 2 2 3 3 4 5 5 5 3 3 4 3 2 2 2 2 2 2
5 5 8 10 5 3 7 9 9 5 5 6 7 7 8 8 6 6 7 7 8 8 8 8 8 7 6 4 4 3 3 2 2 2 3 4 4 5 5 3 3 3 3 4 4 3 2 1 1
6 6 8 9 3 3 4 8 7 5 7 8 9 9 8 6 4 6 6 7 7 9 9 8 9 8 8 5 4 3 3 2 2 1 1 3 4 5 5 4 3 3 3 3 4 3 3 1 1
7 8 8 7 4 2 1 6 4 4 3 3 5 6 7 9 9 9 8 8 8 9 9 9 9 8 8 7 5 4 3 2 1 1 1 2 3 4 4 4 4 3 3 4 4 4 5 3 1
8 9 8 5 2 4 0 3 7 3 2 3 4 4 5 6 7 8 9 8 9 9 8 7 7 7 7 7 7 6 5 4 4 3 2 2 2 3 4 4 4 4 3 4 4 4 3 4 3
8 3 3 3 4 2 1 3 7 2 3 5 5 5 4 5 7 8 9 9 8 8 8 7 7 6 6 7 8 7 5 4 2 2 2 2 2 2 3 4 4 4 3 4 4 4 4 3 4
4 4 4 4 4 2 5 5 6 4 5 4 4 4 3 4 4 6 6 6 6 6 7 6 6 5 5 6 6 7 7 5 4 3 3 2 1 1 2 3 3 4 3 4 4 4 5 4 4
5 5 3 3 2 6 3 4 7 6 5 4 5 4 2 4 5 5 7 7 7 7 7 7 7 6 5 6 6 7 7 7 7 5 4 3 2 2 3 3 3 3 4 4 4 4 4 4 5
4 8 7 5 5 5 2 5 6 3 2 2 2 2 2 4 4 6 7 8 8 8 8 7 7 6 6 6 6 6 6 5 5 5 4 4 4 4 3 3 3 3 3 4 4 3 3 3 4
5 4 6 6 2 2 5 5 5 2 2 1 1 2 3 3 4 5 5 6 7 7 7 8 8 6 6 6 6 6 6 6 5 5 4 4 3 3 3 3 3 3 4 4 4 3 4 3 4
6 7 5 5 4 3 4 3 4 4 4 3 1 2 3 3 3 4 4 5 5 5 5 6 6 7 6 6 5 5 6 6 6 5 4 4 3 3 2 3 3 3 3 3 4 3 3 4 3
3 4 5 4 5 5 3 5 4 6 5 4 3 3 4 4 4 4 3 3 4 3 4 5 6 5 5 5 5 5 5 5 5 5 5 4 3 3 3 4 3 3 3 3 4 4 4 4 4
5 6 7 5 4 4 4 6 3 3 4 3 2 2 3 4 3 3 3 3 3 3 4 4 5 5 6 5 5 5 4 4 5 4 4 4 4 4 4 4 4 4 4 4 4 5 4 5 5
Wind_Direction
149 127 106 81 57 49 289 260 240 278 289 292 126 131 137 145 170 203 108 135 134 139 149 154 152 147 144 142 139 135 134 135 136 135 134 134 134 133 132 131 129 128 128 126 125 125 127 130 139
135 132 75 64 82 52 282 255 241 239 187 134 82 81 91 91 81 116 126 141 137 141 146 152 153 149 146 144 142 139 137 138 139 139 139 139 139 138 135 132 130 130 128 129 129 131 130 131 136
146 125 87 75 107 185 246 251 234 274 176 158 94 65 105 135 132 158 161 142 133 137 145 156 154 150 148 147 145 144 142 142 142 141 141 141 140 139 137 133 132 131 129 129 131 130 128 133 137
117 59 58 71 249 235 235 257 243 239 315 83 114 77 69 35 170 157 140 141 138 139 147 158 152 150 148 150 150 148 146 145 144 144 144 143 142 140 138 135 135 134 133 132 130 127 121 125 127
68 81 60 9 272 263 253 254 233 226 242 113 123 127 18 357 98 127 139 145 144 143 150 158 153 150 149 151 152 151 149 148 147 146 145 144 143 141 138 137 135 134 131 130 129 124 123 122 122
62 71 84 276 280 281 269 240 183 225 177 138 124 129 305 53 111 133 138 139 141 145 150 157 156 154 153 154 155 153 153 152 151 150 148 147 147 145 142 142 139 135 130 130 129 124 126 127 123
111 105 170 227 273 287 272 225 167 186 197 194 146 135 197 134 131 129 127 124 131 139 142 146 153 154 153 153 156 155 155 154 152 152 151 150 151 150 150 149 145 139 136 134 131 127 125 123 122
131 112 168 236 247 264 266 345 206 172 211 155 137 155 198 183 138 121 112 115 125 136 145 145 144 144 145 151 156 158 157 157 154 153 152 150 153 154 155 154 152 149 146 141 137 132 126 122 120
105 88 220 226 221 254 263 2 319 137 137 137 167 182 172 140 135 129 122 124 141 157 160 158 155 147 147 154 160 158 159 158 153 152 154 149 142 144 152 154 151 149 144 141 139 137 133 126 121
114 170 227 220 208 239 274 254 237 158 183 188 130 102 127 141 150 154 157 163 171 180 180 172 169 160 153 158 149 146 150 149 145 146 144 136 135 140 145 148 145 138 133 131 129 125 120 113 110
167 201 230 241 227 236 255 257 213 176 226 218 193 165 153 157 163 169 173 177 183 182 181 180 181 172 164 156 145 139 136 133 131 139 141 132 125 125 114 114 124 122 118 110 109 101 100 99 99
193 238 231 244 229 226 235 238 230 215 229 215 186 164 163 168 176 181 182 183 179 177 184 179 181 175 175 160 152 145 137 134 130 134 131 131 126 118 114 108 106 109 114 111 108 108 107 103 100
219 254 255 251 264 242 238 236 233 247 241 178 158 160 172 178 184 188 184 176 174 180 183 181 179 181 176 161 156 147 139 138 136 133 130 137 138 138 124 111 108 114 118 118 117 117 118 114 104
234 257 287 284 273 256 228 253 220 250 205 160 165 177 181 185 185 181 180 180 184 185 186 180 177 178 165 161 154 148 143 140 138 141 144 144 143 140 136 127 123 127 132 130 129 136 133 126 122
285 319 319 286 253 245 194 281 236 228 172 177 186 188 185 191 187 188 188 187 188 185 182 180 176 168 161 158 154 151 146 144 147 152 152 151 150 150 143 144 147 148 140 129 119 112 110 121 124
30 20 305 285 256 243 170 256 261 208 173 195 199 189 187 195 195 197 188 185 181 174 176 179 174 163 159 155 150 148 146 148 154 154 156 163 160 158 144 148 163 150 136 129 130 126 117 115 122
17 266 263 288 250 200 201 252 260 213 182 200 204 196 191 193 197 196 189 184 177 174 174 172 162 161 159 148 138 133 139 150 151 154 159 170 168 163 155 161 167 153 137 133 142 124 136 136 133
235 235 258 265 256 239 253 260 266 225 203 204 205 202 197 200 207 194 186 180 173 168 168 167 157 156 148 135 122 117 122 140 143 154 169 169 170 169 162 163 163 156 149 151 145 145 132 134 141
210 229 262 267 257 238 251 262 267 235 206 205 207 206 207 214 205 182 179 171 163 159 162 165 161 158 148 151 155 157 170 176 169 176 185 180 173 168 164 166 162 164 172 177 164 147 135 124 123
224 252 268 285 285 219 263 277 272 233 210 209 206 207 206 204 189 183 178 171 169 168 169 166 169 167 162 167 163 156 157 172 182 168 175 188 182 172 173 167 170 172 169 167 167 158 145 154 136
230 216 237 257 315 333 279 307 286 274 238 223 213 212 204 198 197 192 183 180 176 176 178 177 175 171 167 159 142 131 108 90 118 180 204 210 192 175 172 175 173 179 182 188 186 176 168 178 182
244 227 219 236 259 288 162 278 287 280 281 242 238 232 217 209 199 193 183 181 183 182 173 170 167 167 164 159 159 159 166 179 199 200 203 214 193 183 179 177 179 187 192 194 197 189 182 176 193
220 228 199 206 182 262 277 201 278 311 263 264 254 243 226 206 197 189 186 185 179 172 169 170 161 160 160 163 170 169 171 180 175 170 181 200 208 203 195 187 185 193 199 202 200 192 191 193 195
189 77 49 56 93 240 234 189 269 246 237 258 257 248 224 192 181 180 172 161 161 161 162 161 155 157 157 164 172 174 176 173 165 176 190 209 227 234 223 198 194 200 203 204 205 202 197 202 200
123 104 30 356 1 247 232 193 246 248 239 235 238 236 204 175 167 162 160 161 163 166 165 164 160 163 167 172 178 183 181 179 186 190 198 201 209 226 234 216 211 211 211 203 194 199 206 202 200
176 150 165 199 221 265 268 225 248 261 253 254 226 199 159 152 158 166 171 170 170 172 166 165 164 171 173 178 184 184 182 184 195 194 194 200 210 222 222 216 217 217 210 201 190 196 208 202 207
151 177 171 148 178 244 270 281 305 325 336 351 105 133 150 155 158 164 167 170 171 171 171 172 170 172 176 181 184 183 180 188 196 194 191 200 213 217 212 207 212 213 207 198 188 199 206 199 209
151 143 106 133 168 237 275 265 263 284 277 276 243 183 169 146 143 158 172 175 170 168 163 163 173 178 181 184 190 188 184 189 192 190 197 206 215 211 206 210 211 211 205 196 191 202 205 199 210
131 124 128 138 167 174 235 265 231 234 241 236 228 196 170 163 162 164 170 169 157 148 150 163 172 173 181 188 190 180 179 178 178 191 206 209 212 208 210 211 208 206 204 201 198 209 202 208 222
172 166 149 159 215 185 184 256 285 253 247 221 209 170 149 157 156 144 135 132 143 157 160 164 173 180 188 187 180 184 180 175 184 199 210 207 212 218 217 212 208 208 204 199 202 217 215 214 223
Height
1501 1501 1502 1504 1507 1516 1516 1508 1501 1498 1496 1494 1494 1494 1496 1498 1502 1505 1500 1499 1501 1502 1504 1505 1507 1509 1510 1512 1513 1514 1515 1517 1518 1519 1521 1522 1522 1523 1524 1525 1527 1528 1529 1529 1530 1531 1533 1534 1535
1501 1502 1504 1504 1513 1524 1518 1504 1500 1496 1494 1494 1494 1495 1495 1496 1497 1498 1498 1500 1501 1503 1504 1506 1507 1509 1511 1512 1513 1515 1516 1517 1519 1520 1521 1522 1523 1524 1525 1526 1528 1529 1529 1530 1531 1532 1533 1534 1536
1501 1502 1504 1507 1515 1521 1511 1499 1496 1494 1494 1494 1494 1495 1496 1497 1497 1497 1498 1499 1502 1503 1505 1506 1508 1509 1511 1512 1514 1515 1517 1518 1519 1520 1522 1523 1524 1525 1526 1527 1528 1529 1530 1531 1532 1533 1534 1534 1535
1502 1503 1505 1511 1513 1509 1503 1496 1494 1494 1493 1493 1494 1496 1496 1497 1497 1498 1499 1500 1502 1504 1505 1507 1508 1510 1511 1513 1515 1516 1517 1518 1520 1521 1522 1523 1525 1526 1527 1528 1529 1530 1531 1532 1533 1533 1534 1534 1536
1502 1503 1510 1516 1512 1503 1497 1494 1494 1494 1493 1493 1494 1496 1497 1497 1497 1498 1499 1501 1502 1504 1505 1507 1509 1510 1512 1513 1515 1516 1517 1519 1520 1521 1522 1524 1525 1527 1528 1529 1530 1531 1532 1533 1533 1534 1534 1535 1536
1502 1504 1517 1520 1510 1500 1495 1493 1493 1493 1493 1493 1494 1496 1497 1497 1497 1498 1500 1501 1503 1504 1506 1507 1509 1510 1512 1513 1515 1516 1518 1519 1520 1522 1523 1524 1526 1527 1528 1529 1530 1531 1532 1533 1534 1535 1535 1536 1537
1502 1508 1514 1512 1509 1501 1494 1491 1492 1493 1493 1493 1493 1495 1496 1497 1498 1499 1501 1502 1504 1505 1506 1508 1509 1510 1512 1513 1515 1517 1518 1519 1520 1522 1523 1525 1526 1527 1528 1529 1530 1532 1533 1533 1534 1535 1536 1536 1537
1501 1506 1510 1511 1507 1501 1493 1491 1491 1492 1492 1493 1493 1494 1494 1496 1497 1499 1501 1502 1503 1505 1506 1508 1509 1510 1512 1513 1515 1517 1518 1519 1521 1522 1523 1525 1526 1527 1529 1530 1531 1532 1533 1534 1535 1535 1536 1537 1537
1500 1509 1513 1507 1503 1497 1492 1491 1491 1491 1491 1492 1492 1492 1493 1494 1496 1498 1500 1502 1503 1504 1506 1507 1509 1510 1512 1513 1515 1516 1518 1519 1520 1521 1523 1524 1526 1527 1529 1530 1530 1532 1533 1534 1535 1536 1536 1537 1538
1499 1509 1504 1496 1494 1492 1491 1491 1491 1491 1491 1491 1491 1491 1492 1494 1495 1497 1498 1500 1501 1503 1505 1507 1508 1510 1511 1513 1514 1516 1517 1519 1520 1521 1522 1524 1526 1527 1528 1529 1530 1531 1533 1534 1535 1536 1536 1537 1538
1496 1499 1494 1491 1490 1490 1490 1489 1489 1489 1490 1488 1487 1488 1490 1492 1494 1496 1497 1499 1500 1502 1504 1505 1507 1509 1511 1512 1514 1515 1517 1519 1520 1521 1522 1523 1525 1527 1528 1529 1530 1531 1532 1533 1534 1535 1536 1537 1538
1494 1491 1490 1488 1487 1488 1488 1487 1487 1487 1485 1485 1486 1487 1488 1490 1492 1494 1496 1498 1500 1501 1503 1504 1506 1508 1509 1511 1513 1514 1516 1518 1519 1521 1522 1523 1524 1526 1527 1528 1530 1531 1532 1533 1534 1535 1536 1537 1538
1492 1489 1487 1486 1485 1485 1485 1485 1485 1483 1482 1484 1485 1486 1487 1488 1490 1493 1495 1497 1499 1500 1502 1503 1505 1506 1507 1509 1512 1513 1516 1517 1519 1520 1521 1523 1524 1525 1526 1527 1529 1531 1532 1533 1534 1535 1536 1537 1537
1488 1487 1486 1484 1483 1483 1483 1482 1483 1480 1481 1482 1483 1484 1485 1487 1489 1492 1494 1495 1497 1499 1500 1502 1503 1504 1506 1508 1510 1512 1515 1517 1518 1520 1521 1522 1524 1525 1526 1527 1529 1530 1531 1532 1533 1534 1535 1536 1537
1487 1488 1485 1482 1482 1481 1482 1483 1479 1476 1478 1479 1480 1482 1484 1486 1488 1489 1491 1493 1495 1497 1499 1500 1502 1503 1505 1507 1509 1512 1514 1516 1518 1519 1520 1522 1523 1525 1526 1527 1528 1529 1531 1532 1533 1534 1535 1535 1536
1488 1491 1494 1484 1481 1480 1485 1487 1475 1475 1476 1476 1478 1480 1481 1484 1486 1488 1490 1492 1494 1496 1498 1499 1501 1502 1504 1506 1509 1511 1513 1515 1517 1518 1520 1521 1523 1524 1525 1526 1527 1529 1530 1531 1532 1533 1534 1534 1535
1494 1499 1496 1487 1480 1480 1483 1483 1474 1473 1474 1474 1476 1478 1479 1481 1483 1485 1487 1490 1492 1494 1496 1498 1500 1502 1504 1506 1509 1511 1513 1515 1516 1518 1519 1520 1522 1523 1524 1525 1527 1528 1529 1530 1531 1532 1532 1533 1534
1498 1497 1494 1490 1481 1480 1482 1479 1473 1472 1472 1472 1474 1475 1477 1478 1479 1482 1484 1487 1490 1492 1495 1497 1499 1501 1503 1505 1508 1510 1512 1514 1516 1517 1519 1520 1521 1522 1523 1525 1525 1526 1527 1528 1529 1530 1531 1531 1532
1487 1490 1492 1484 1477 1480 1480 1477 1472 1470 1470 1471 1472 1473 1474 1475 1477 1480 1482 1485 1487 1490 1492 1495 1497 1500 1502 1504 1506 1508 1510 1513 1514 1516 1518 1519 1520 1521 1522 1523 1524 1525 1526 1527 1528 1528 1529 1530 1531
1486 1491 1489 1480 1475 1477 1479 1477 1470 1468 1467 1467 1468 1469 1471 1473 1475 1477 1480 1483 1485 1487 1490 1493 1495 1498 1499 1502 1504 1507 1509 1511 1513 1514 1516 1517 1518 1519 1520 1521 1522 1523 1524 1525 1526 1527 1527 1528 1529
1483 1487 1485 1482 1477 1476 1479 1480 1472 1467 1466 1467 1467 1468 1469 1470 1472 1474 1477 1479 1482 1485 1488 1490 1493 1495 1497 1500 1503 1505 1508 1509 1511 1512 1514 1515 1516 1517 1518 1519 1520 1521 1522 1523 1524 1525 1525 1526 1527
1483 1473 1475 1478 1485 1490 1484 1495 1477 1470 1468 1466 1466 1466 1466 1468 1469 1471 1473 1477 1480 1482 1486 1489 1491 1494 1496 1499 1501 1503 1505 1506 1508 1510 1512 1513 1514 1515 1516 1517 1518 1519 1520 1521 1521 1522 1523 1524 1525
1472 1468 1472 1476 1483 1490 1487 1493 1483 1472 1470 1466 1464 1464 1464 1465 1466 1468 1471 1474 1478 1481 1484 1487 1489 1492 1494 1497 1499 1501 1503 1505 1507 1508 1510 1511 1512 1513 1514 1515 1516 1517 1518 1518 1519 1520 1521 1522 1523
1464 1470 1475 1482 1489 1498 1487 1492 1487 1475 1468 1463 1462 1461 1461 1463 1464 1466 1470 1473 1477 1480 1483 1486 1488 1490 1493 1495 1497 1499 1501 1503 1504 1506 1507 1508 1509 1510 1512 1512 1513 1514 1515 1516 1517 1518 1519 1520 1521
1465 1481 1496 1497 1504 1499 1483 1486 1483 1466 1462 1460 1460 1459 1459 1461 1463 1465 1468 1471 1474 1477 1480 1483 1486 1488 1491 1493 1495 1497 1499 1501 1502 1504 1505 1506 1507 1508 1509 1510 1511 1512 1513 1513 1514 1515 1516 1517 1518
1466 1475 1494 1502 1504 1496 1483 1484 1473 1461 1459 1458 1458 1458 1459 1460 1461 1464 1467 1469 1472 1475 1478 1481 1483 1486 1488 1490 1492 1494 1497 1498 1500 1502 1503 1504 1504 1505 1506 1507 1509 1509 1510 1511 1512 1513 1514 1515 1515
1465 1472 1472 1487 1491 1496 1489 1478 1467 1459 1458 1458 1457 1457 1458 1459 1460 1463 1466 1468 1471 1473 1476 1478 1481 1483 1486 1488 1490 1492 1493 1496 1497 1499 1500 1501 1502 1503 1504 1505 1506 1507 1507 1508 1509 1510 1511 1512 1513
1456 1464 1478 1488 1497 1498 1488 1481 1477 1464 1460 1458 1457 1456 1457 1458 1460 1462 1465 1467 1470 1472 1475 1477 1480 1482 1484 1486 1488 1489 1491 1493 1495 1497 1498 1499 1500 1501 1502 1503 1504 1504 1505 1505 1506 1507 1508 1509 1510
1460 1466 1473 1483 1485 1494 1496 1485 1462 1460 1457 1457 1456 1456 1457 1458 1460 1462 1464 1467 1469 1471 1474 1476 1478 1480 1482 1484 1486 1487 1489 1491 1493 1495 1496 1497 1498 1499 1500 1501 1501 1501 1502 1503 1503 1504 1505 1506 1507
1452 1459 1468 1479 1482 1485 1488 1482 1455 1455 1454 1454 1455 1456 1457 1459 1460 1462 1464 1466 1468 1470 1472 1474 1476 1478 1480 1482 1483 1485 1487 1489 1490 1492 1494 1495 1496 1497 1498 1498 1498 1499 1499 1500 1500 1501 1501 1502 1503